Location: Saint-Usage
(47.1052°N, 5.2587°E)
Time: 20:12:52
(UTC+02:00)

Envisat - Pass Details

Date: 27 September 2021
Orbit: 764 x 766 km, 98.2° (Epoch: 18 October)

Event Time Altitude Azimuth Distance (km) Brightness Sun altitude
Rises 06:21:51 0° 19° (NNE) 3,242 6.7 -12.8°
Reaches altitude 10° 06:24:17 10° 26° (NNE) 2,311 6.0 -12.4°
Maximum altitude 06:29:08 43° 98° (E) 1,061 4.3 -11.6°
Drops below altitude 10° 06:33:57 10° 170° (S) 2,294 5.5 -10.8°
Sets 06:36:21 0° 177° (S) 3,215 6.2 -10.4°
